Location: *
(49.4547°N, 7.9131°E)
Time: 10:26:46
(UTC+00:00)

Cosmos 1943 - Pass Details

Date: 22 September 2019
Orbit: 833 x 851 km, 71.0° (Epoch: 18 October)

Event Time Altitude Azimuth Distance (km) Brightness Sun altitude
Rises 20:14:24 0° 332° (NNW) 3,427 7.4 -26.3°
Reaches altitude 10° 20:16:54 10° 335° (NNW) 2,486 6.4 -26.7°
Enters shadow 20:22:26 67° 47° (NE) 918 3.2 -27.4°
